Weather History for Rhinelander, WI

Change the Weather History Date:

Wednesday, November 19, 2014

  Actual Average Record
Temperature  
Mean Temperature 13 °F 28 °F  
Max Temperature 17 °F 36 °F 70 °F (1930)
Min Temperature 8 °F 21 °F 0 °F (1932)
Degree Days  
Heating Degree Days 52 37  
Month to date heating degree days 787 604  
Since 1 July heating degree days 1986 1697  
Cooling Degree Days 0 0  
Month to date cooling degree days 0 0  
Year to date cooling degree days 148 261  
Moisture  
Dew Point 8 °F    
Average Humidity 81    
Maximum Humidity 92    
Minimum Humidity 70    
Precipitation  
Precipitation 0.07 in 0.06 in 0.72 in (1915)
Month to date precipitation 2.24 1.19  
Year to date precipitation 38.52 29.31  
Snow  
Snow 1.40 in - 10.00 in (1957)
Month to date snowfall 23.6  
Since 1 July snowfall 26.3  
Since 1 September snowfall 26.3  
Snow Depth 10.00 in    
Sea Level Pressure  
Sea Level Pressure 29.68 in    
Wind  
Wind Speed 10 mph (WSW)    
Max Wind Speed 21 mph    
Max Gust Speed 28 mph    
Visibility 4 miles    
Events Snow    
T = Trace of Precipitation, MM = Missing Value Source: NWS Daily Summary

Daily Weather History Graph

Daily Weather History Graph

Search for Another Location

Airport:

Trip Planner

Search our weather history database for the weather conditions in past years. The results will help you decide how hot, cold, wet, or windy it might be!

Date:

Astronomy

Nov. 19, 2014 Rise Set
Actual Time 7:02 AM CST 4:23 PM CST
Civil Twilight 6:30 AM CST 4:55 PM CST
Nautical Twilight 5:53 AM CST 5:32 PM CST
Astronomical Twilight 5:18 AM CST 6:07 PM CST
Moon 3:49 AM CST (11/19) 2:59 PM CST (11/19)
Length of Visible Light 10h 25m
Length of Day
9h 20m
Waning Crescent, 8% of the Moon is Illuminated
Nov 19
Waning Crescent
Nov 22
New
Nov 29
First Quarter
Dec 6
Full
Dec 14
Last Quarter

Hourly Weather History & Observations

Time (CST) Temp. Windchill Dew Point Humidity Pressure Visibility Wind Dir Wind Speed Gust Speed Precip Events Conditions
12:53 AM 8.1 °F -4.3 °F 3.0 °F 80% 29.87 in 10.0 mi SSW 8.1 mph - N/A   Overcast
1:53 AM 9.0 °F 0.6 °F 3.9 °F 80% 29.84 in 4.0 mi South 4.6 mph - 0.00 in Snow Light Snow
2:04 AM 9.0 °F 0.6 °F 3.9 °F 80% 29.73 in 2.0 mi South 4.6 mph - 0.00 in Snow Light Snow
2:28 AM 9.0 °F 0.6 °F 5.0 °F 84% 29.73 in 4.0 mi South 4.6 mph - 0.00 in Snow Light Snow
2:41 AM 9.0 °F -0.9 °F 5.0 °F 84% 29.72 in 1.8 mi South 5.8 mph - 0.00 in Snow Light Snow
2:53 AM 9.0 °F -0.9 °F 6.1 °F 88% 29.82 in 1.5 mi South 5.8 mph - 0.00 in Snow Light Snow
3:04 AM 9.0 °F -0.9 °F 6.1 °F 88% 29.70 in 2.5 mi South 5.8 mph - 0.00 in Snow Light Snow
3:24 AM 9.0 °F 0.6 °F 6.1 °F 88% 29.69 in 1.5 mi SSE 4.6 mph - 0.00 in Snow Light Snow
3:53 AM 10.0 °F 0.4 °F 6.1 °F 84% 29.79 in 2.0 mi SSE 5.8 mph - 0.00 in Snow Light Snow
4:07 AM 10.0 °F 1.8 °F 6.1 °F 84% 29.67 in 1.8 mi SSE 4.6 mph - 0.00 in Snow Light Snow
4:35 AM 10.0 °F 1.8 °F 6.1 °F 84% 29.66 in 2.0 mi SSE 4.6 mph - 0.00 in Snow Light Snow
4:53 AM 10.0 °F 1.8 °F 6.1 °F 84% 29.76 in 2.0 mi South 4.6 mph - 0.00 in Snow Light Snow
5:04 AM 10.0 °F 0.4 °F 6.1 °F 84% 29.66 in 1.8 mi SSE 5.8 mph - 0.00 in Snow Light Snow
5:53 AM 10.0 °F 1.8 °F 7.0 °F 87% 29.75 in 1.2 mi South 4.6 mph - 0.01 in Snow Light Snow
6:26 AM 10.0 °F 1.8 °F 7.0 °F 87% 29.64 in 2.0 mi South 4.6 mph - 0.00 in Snow Light Snow
6:53 AM 10.0 °F 3.6 °F 7.0 °F 87% 29.74 in 2.5 mi SSE 3.5 mph - 0.00 in Snow Light Snow
7:20 AM 10.0 °F 3.6 °F 7.0 °F 87% 29.63 in 1.5 mi SSE 3.5 mph - 0.00 in Snow Light Snow
7:28 AM 10.0 °F - 7.0 °F 87% 29.63 in 1.8 mi Calm Calm - 0.00 in Snow Light Snow
7:45 AM 10.0 °F 3.6 °F 7.0 °F 87% 29.63 in 2.5 mi South 3.5 mph - 0.00 in Snow Light Snow
7:53 AM 10.0 °F 3.6 °F 7.0 °F 87% 29.73 in 2.5 mi South 3.5 mph - 0.00 in Snow Light Snow
8:05 AM 10.0 °F 3.6 °F 7.0 °F 87% 29.63 in 1.2 mi South 3.5 mph - 0.00 in Snow Light Snow
8:39 AM 10.9 °F 4.7 °F 8.1 °F 88% 29.62 in 0.8 mi South 3.5 mph - 0.00 in Snow Light Snow
8:50 AM 10.4 °F - 6.8 °F 85% 29.62 in 1.0 mi Calm Calm - 0.00 in Snow Light Snow
8:53 AM 10.9 °F 4.7 °F 8.1 °F 88% 29.72 in 1.0 mi South 3.5 mph - 0.00 in Snow Light Snow
9:53 AM 12.9 °F 2.6 °F 8.1 °F 81% 29.71 in 1.2 mi West 6.9 mph - 0.00 in Snow Light Snow
10:20 AM 12.9 °F -0.2 °F 8.1 °F 81% 29.61 in 1.8 mi West 10.4 mph - 0.00 in Snow Light Snow
10:45 AM 14.0 °F 0.5 °F 9.0 °F 80% 29.61 in 2.0 mi West 11.5 mph - 0.00 in Snow Light Snow
10:53 AM 14.0 °F -0.2 °F 9.0 °F 80% 29.71 in 2.0 mi West 12.7 mph - 0.00 in Snow Light Snow
11:18 AM 15.1 °F 2.5 °F 9.0 °F 77% 29.60 in 3.0 mi West 10.4 mph - 0.00 in Snow Light Snow
11:53 AM 16.0 °F 3.6 °F 8.1 °F 71% 29.70 in 4.0 mi West 10.4 mph 19.6 mph 0.00 in Snow Light Snow
12:02 PM 16.0 °F 1.1 °F 8.1 °F 71% 29.60 in 7.0 mi West 15.0 mph 19.6 mph 0.00 in   Overcast
12:37 PM 16.0 °F 2.9 °F 8.1 °F 71% 29.59 in 4.0 mi West 11.5 mph - 0.00 in Snow Light Snow
12:45 PM 16.0 °F 2.3 °F 9.0 °F 74% 29.59 in 2.5 mi WNW 12.7 mph 20.7 mph 0.00 in Snow Light Snow
12:51 PM 15.8 °F 3.4 °F 8.6 °F 73% 29.59 in 1.5 mi West 10.4 mph 20.7 mph 0.00 in Snow Light Snow
12:53 PM 16.0 °F 1.7 °F 9.0 °F 74% 29.70 in 1.5 mi West 13.8 mph - 0.00 in Snow Light Snow
1:06 PM 16.0 °F 2.9 °F 10.0 °F 77% 29.60 in 1.2 mi West 11.5 mph - 0.00 in Snow Light Snow
1:22 PM 16.0 °F 2.9 °F 10.0 °F 77% 29.60 in 2.5 mi West 11.5 mph - 0.00 in Snow Light Snow
1:30 PM 16.0 °F 1.7 °F 10.0 °F 77% 29.60 in 2.5 mi West 13.8 mph 23.0 mph 0.00 in Snow Light Snow
1:38 PM 16.0 °F 2.9 °F 10.0 °F 77% 29.60 in 3.0 mi West 11.5 mph - 0.00 in Snow Light Snow
1:41 PM 16.0 °F 1.1 °F 10.0 °F 77% 29.60 in 2.5 mi WNW 15.0 mph 20.7 mph 0.00 in Snow Light Snow
1:45 PM 16.0 °F 1.7 °F 10.0 °F 77% 29.60 in 1.8 mi West 13.8 mph 20.7 mph 0.00 in Snow Light Snow
1:53 PM 16.0 °F 2.9 °F 10.0 °F 77% 29.70 in 2.5 mi West 11.5 mph 21.9 mph 0.00 in Snow Light Snow
2:00 PM 17.1 °F 3.6 °F 9.0 °F 71% 29.60 in 3.0 mi WNW 12.7 mph 18.4 mph 0.00 in Snow Light Snow
2:03 PM 17.1 °F 4.3 °F 10.0 °F 74% 29.60 in 2.0 mi West 11.5 mph 18.4 mph 0.00 in Snow Light Snow
2:10 PM 16.0 °F 1.7 °F 10.9 °F 81% 29.61 in 1.0 mi West 13.8 mph - 0.00 in Snow Light Snow
2:25 PM 17.1 °F 3.6 °F 10.0 °F 74% 29.61 in 2.0 mi WNW 12.7 mph - 0.00 in Snow Light Snow
2:53 PM 16.0 °F 2.9 °F 10.0 °F 77% 29.72 in 1.8 mi West 11.5 mph - 0.00 in Snow Light Snow
3:00 PM 16.0 °F 2.3 °F 10.0 °F 77% 29.63 in 3.0 mi West 12.7 mph 21.9 mph 0.00 in Snow Light Snow
3:14 PM 16.0 °F 2.9 °F 10.0 °F 77% 29.63 in 1.8 mi West 11.5 mph - 0.00 in Snow Light Snow
3:27 PM 16.0 °F 2.9 °F 10.9 °F 81% 29.64 in 0.8 mi West 11.5 mph - 0.00 in Snow Light Snow
3:34 PM 16.0 °F 1.7 °F 10.9 °F 81% 29.64 in 1.0 mi West 13.8 mph - 0.00 in Snow Light Snow
3:45 PM 16.0 °F 2.9 °F 10.0 °F 77% 29.64 in 3.0 mi West 11.5 mph - 0.00 in Snow Light Snow
3:53 PM 16.0 °F 2.9 °F 9.0 °F 74% 29.74 in 5.0 mi WNW 11.5 mph 21.9 mph 0.00 in   Haze
4:11 PM 16.0 °F 2.3 °F 10.0 °F 77% 29.65 in 3.0 mi West 12.7 mph - 0.00 in Snow Light Snow
4:28 PM 15.1 °F 2.5 °F 10.9 °F 84% 29.65 in 2.0 mi West 10.4 mph - 0.00 in Snow Light Snow
4:35 PM 15.1 °F 1.8 °F 10.0 °F 80% 29.66 in 4.0 mi West 11.5 mph - 0.00 in Snow Light Snow
4:53 PM 15.1 °F 0.5 °F 10.0 °F 80% 29.76 in 5.0 mi West 13.8 mph - 0.00 in Snow Light Snow
4:59 PM 15.1 °F 0.5 °F 10.9 °F 84% 29.66 in 2.5 mi West 13.8 mph - 0.00 in Snow Light Snow
5:09 PM 15.1 °F -0.1 °F 10.0 °F 80% 29.67 in 5.0 mi West 15.0 mph - 0.00 in Snow Light Snow
5:32 PM 15.1 °F 0.5 °F 9.0 °F 77% 29.67 in 10.0 mi West 13.8 mph - 0.00 in   Overcast
5:53 PM 15.1 °F 1.1 °F 8.1 °F 74% 29.78 in 10.0 mi West 12.7 mph - 0.00 in   Overcast
6:53 PM 14.0 °F -1.4 °F 9.0 °F 80% 29.80 in 8.0 mi West 15.0 mph - N/A   Overcast
7:11 PM 14.0 °F -1.4 °F 10.0 °F 84% 29.70 in 3.0 mi West 15.0 mph - 0.00 in Snow Light Snow
7:22 PM 14.0 °F -1.4 °F 10.0 °F 84% 29.70 in 4.0 mi West 15.0 mph 21.9 mph 0.00 in   Overcast
7:53 PM 15.1 °F -0.1 °F 9.0 °F 77% 29.80 in 10.0 mi West 15.0 mph - 0.00 in   Overcast
8:25 PM 15.1 °F -0.1 °F 8.1 °F 74% 29.71 in 6.0 mi West 15.0 mph 25.3 mph 0.00 in Snow Light Snow
8:38 PM 14.0 °F -2.0 °F 7.0 °F 74% 29.71 in 10.0 mi West 16.1 mph - 0.00 in   Scattered Clouds
8:53 PM 14.0 °F -2.0 °F 7.0 °F 74% 29.81 in 10.0 mi West 16.1 mph - 0.00 in   Scattered Clouds
9:53 PM 12.9 °F -1.6 °F 5.0 °F 71% 29.81 in 10.0 mi West 12.7 mph 25.3 mph N/A   Scattered Clouds
10:03 PM 12.9 °F -2.8 °F 6.1 °F 74% 29.72 in 6.0 mi West 15.0 mph - N/A   Haze
10:31 PM 12.0 °F -2.7 °F 5.0 °F 73% 29.71 in 10.0 mi West 12.7 mph - N/A   Scattered Clouds
10:53 PM 10.9 °F -5.4 °F 5.0 °F 77% 29.82 in 10.0 mi West 15.0 mph - N/A   Partly Cloudy
11:53 PM 10.9 °F -3.4 °F 3.9 °F 73% 29.83 in 10.0 mi West 11.5 mph 21.9 mph N/A   Clear